STARLINK-1475 (45739 NORAD) Tracking and Keplerian Element Data

This shows tracking and keplerian element data for the satellite.

Feedback or suggestion? Click here.




ElementValue
Catalog45739
NameSTARLINK-1475
Epoch Orbit906
Epoch Day215.91667824
Epoch Year2020
RAAN49.378
Inclination53.0005
Eccentricity9.9E-05
Argument of Perigee359.1969
Mean Anonmoly218.2076
Mean Motion15.62869918
Decay Rate-0.0038316
L11 45739U 20038K 20215.91667824 -.00383160 00000-0 -43591-2 0 9991
L22 45739 53.0005 49.3780 0000990 359.1969 218.2076 15.62869918 9060

Live tracking and technical data element details for STARLINK-1475 (NORAD 45739). STARLINK-1475 can be tracked NOW for your location showing map with azimuth and elevation plus other details from your city location.

Track the satellite on the map from your city or location and see movement details for azimuth, elevation, latitude, longitude, range, height, and movement on the map or in text.







IsCatalogInMostPopularTable: catalog: 45739, numindb: 8
Update: records affected: 1



GetName: 45739 STARLINK-1475

Hit Count: updated at: Mon, 03 Aug 2020 17:33:16 GMT